Theta_e
309 308 308 307 307 310 311 311 311 311 311 311 310 310 311 311 310 310 311 312 312 314 318 325 325 326 326 326 327 334 345 343 343 342 343 342 342 340 339 339 341 346 346 346
307 308 310 310 311 311 311 311 310 310 311 311 310 310 311 311 310 310 310 310 311 312 313 318 323 324 325 325 327 331 344 343 342 343 343 346 344 345 342 342 343 341 341 345
308 308 310 310 311 311 311 311 313 313 313 310 310 310 310 311 310 310 310 309 310 310 312 315 321 323 323 324 327 331 337 346 346 345 347 346 343 340 340 339 339 339 342 345
307 308 308 310 311 312 313 314 314 314 314 312 310 311 309 309 309 309 309 308 308 309 311 312 315 320 322 324 325 329 335 342 347 347 342 340 337 339 337 336 337 339 343 345
307 308 307 309 314 314 314 313 312 313 313 310 310 307 310 308 309 309 309 308 309 309 310 311 312 316 320 325 328 332 334 335 340 338 336 335 335 333 331 335 338 340 345 347
307 308 312 313 313 312 312 312 311 310 308 309 309 308 310 308 308 308 311 312 314 315 315 313 313 313 315 321 327 332 337 337 336 335 335 334 332 331 339 343 342 346 348 349
308 308 313 313 312 309 309 311 313 313 311 313 310 310 310 310 310 316 317 316 315 314 314 314 314 314 313 319 329 336 337 336 335 335 334 332 330 330 337 343 344 349 349 348
308 308 310 312 311 310 309 310 312 317 317 315 311 312 310 315 316 316 315 314 314 313 313 315 316 316 317 315 323 332 334 333 334 334 332 331 330 333 337 340 344 349 349 348
310 311 309 309 309 309 309 309 309 313 311 312 310 310 310 315 316 315 315 314 312 313 313 315 318 316 318 318 320 329 331 331 331 331 330 333 333 338 337 337 343 349 348 348
309 310 309 310 309 309 310 310 311 310 315 317 313 312 312 317 317 316 314 313 313 313 315 317 318 317 319 319 320 324 328 329 329 330 331 333 336 339 339 342 348 349 349 348
310 310 311 309 309 309 311 312 313 311 312 313 317 313 316 317 315 315 314 315 314 315 316 318 317 315 315 330 331 332 328 326 327 329 331 337 341 341 342 346 348 349 348 347
311 310 311 311 310 309 313 313 314 309 312 315 315 313 313 314 313 314 315 314 313 314 316 318 317 315 315 327 334 334 334 333 335 336 340 343 344 345 349 349 348 348 348 345
312 310 313 309 308 309 312 311 311 311 311 315 315 312 315 314 314 315 314 315 314 315 318 319 317 316 316 321 333 334 335 335 338 344 345 347 346 347 351 350 348 348 347 345
313 310 311 311 311 309 313 313 312 311 316 314 313 313 315 316 316 315 317 316 316 317 318 317 316 316 316 331 338 337 340 341 344 346 348 348 349 350 349 349 348 347 346 345
311 312 313 313 314 314 314 314 314 314 312 314 314 317 315 315 315 315 317 318 317 319 319 317 319 319 328 330 333 338 345 346 347 347 348 346 346 345 346 346 346 345 345 343
309 312 315 316 314 313 313 313 314 314 314 313 313 313 313 312 312 314 316 318 319 319 319 319 318 327 331 331 328 332 341 345 346 345 344 343 341 340 341 341 340 338 338 338
310 310 313 315 313 314 316 316 317 315 314 313 315 312 312 312 313 313 313 314 315 317 319 317 317 319 326 330 329 334 335 343 344 343 342 341 340 338 338 338 337 336 335 335
311 314 315 316 312 313 314 315 315 315 313 313 313 313 312 313 313 313 313 314 316 315 315 316 316 316 319 329 329 330 329 337 342 342 340 340 338 337 337 337 335 334 334 333
311 312 316 317 308 312 313 316 315 316 314 313 312 312 313 313 313 312 313 315 311 311 313 314 315 316 321 331 329 328 328 336 341 340 339 338 337 336 336 335 333 333 332 332
311 312 316 315 315 311 307 313 312 311 315 311 311 312 312 312 313 310 309 310 310 310 311 313 314 316 318 328 331 329 329 338 339 338 337 337 336 336 334 333 332 333 332 332
315 314 313 316 314 314 312 315 312 312 310 311 310 311 310 312 311 310 310 310 310 310 312 313 313 316 318 326 330 330 328 337 337 336 336 337 336 336 333 333 333 333 332 332
314 313 314 314 315 312 313 312 316 312 311 312 311 311 310 311 311 311 310 310 310 310 311 312 313 315 318 324 329 330 333 334 335 334 335 336 336 335 333 333 333 333 332 332
313 313 317 316 310 308 312 314 313 313 313 312 312 311 311 311 311 311 310 310 310 310 310 312 313 315 318 327 330 332 331 334 333 334 335 335 336 335 333 333 334 333 333 331
312 310 311 311 313 314 313 314 312 313 312 312 310 309 309 310 310 310 310 310 310 310 311 312 313 316 317 326 329 328 333 334 334 334 335 334 334 334 334 334 334 333 331 330
308 308 312 313 314 314 314 313 312 311 309 309 309 309 310 310 309 309 311 311 311 311 312 313 313 315 319 325 328 333 335 333 333 333 334 333 334 334 334 333 333 333 332 332
309 312 313 313 313 315 315 313 311 311 309 308 308 308 308 309 310 310 311 311 311 311 312 313 314 316 320 325 329 333 334 332 332 332 332 330 330 331 331 329 328 333 332 332
Wind_Speed
2 4 6 10 8 10 6 5 4 3 6 4 10 15 14 7 7 8 9 13 13 14 17 29 29 34 36 34 27 29 41 44 44 40 37 33 33 35 32 30 28 29 33 32
7 3 5 6 5 3 6 6 6 6 6 6 7 21 18 7 6 7 9 12 12 15 15 17 28 28 33 35 28 23 36 44 46 42 42 36 40 36 30 27 26 29 28 30
2 8 6 6 3 6 5 5 7 9 11 7 5 18 16 15 8 7 8 10 14 11 14 17 19 29 30 28 27 26 39 42 47 47 44 27 23 17 19 21 20 23 27 29
5 4 4 6 3 4 3 6 8 10 8 4 5 16 12 10 12 12 13 13 13 16 14 15 17 20 28 33 32 28 38 44 48 49 41 37 29 21 25 26 23 20 26 29
8 5 7 3 3 2 5 6 4 8 10 3 5 4 10 8 17 17 17 12 12 11 14 15 17 22 35 37 32 26 34 46 44 47 42 35 29 26 27 22 19 19 25 26
9 3 3 5 3 2 1 3 5 4 2 4 4 6 18 5 12 6 8 13 13 16 20 20 26 29 29 34 35 31 31 41 46 40 36 32 32 29 25 20 18 18 24 25
3 1 2 2 3 6 6 4 4 5 3 5 5 8 13 9 9 3 6 11 14 13 15 19 20 21 26 23 32 34 36 39 40 36 35 37 35 33 30 25 22 24 27 27
1 5 4 2 1 5 4 5 4 4 3 7 12 7 6 2 5 2 5 7 10 13 14 18 20 20 27 30 30 33 32 36 43 41 41 40 39 37 32 27 25 30 33 31
3 3 9 6 4 2 3 4 6 4 6 7 5 7 7 3 6 5 9 10 11 13 16 18 21 19 29 31 29 33 32 37 43 47 44 40 39 36 33 29 28 31 33 32
3 5 4 3 6 3 2 3 3 3 3 5 4 6 8 6 9 12 17 14 16 16 18 16 16 20 35 28 29 36 36 37 40 40 42 40 38 35 32 29 28 30 33 31
2 2 5 4 2 4 4 1 3 2 4 4 4 5 4 6 4 10 14 14 17 17 21 15 15 23 35 16 23 23 28 33 36 41 40 33 31 28 32 29 30 31 34 30
1 2 4 8 15 9 6 6 4 3 4 4 4 10 5 4 6 6 11 12 16 18 21 14 15 22 24 26 7 11 17 21 24 27 28 26 25 30 27 29 31 34 33 31
2 1 4 7 4 4 3 3 5 3 2 8 5 7 2 5 6 6 8 13 16 19 18 18 23 26 20 22 12 10 15 21 23 25 26 28 28 27 28 31 34 34 34 32
7 5 7 6 8 5 14 17 14 9 5 9 12 16 6 10 12 7 7 8 14 16 14 11 23 25 17 17 16 14 16 23 27 30 29 26 26 28 31 33 32 33 34 32
7 6 6 12 16 16 19 21 18 16 16 9 15 7 9 8 11 10 7 5 11 16 16 22 21 19 8 10 19 17 18 27 29 26 26 26 28 31 33 32 30 32 32 31
2 5 2 15 14 16 18 17 15 16 16 5 7 11 5 7 10 12 10 8 13 14 18 19 18 15 10 11 22 23 10 23 28 24 24 30 32 34 36 33 32 30 29 28
5 3 4 16 5 12 10 4 1 2 6 5 7 4 5 7 12 11 14 13 13 16 17 17 17 15 14 15 16 8 11 9 26 26 27 30 31 32 34 34 32 28 25 24
9 3 3 4 4 3 3 2 3 4 10 8 9 10 8 11 12 13 13 14 11 16 16 18 16 15 22 11 17 12 19 25 24 27 27 30 30 30 34 33 30 26 28 29
11 5 3 2 3 7 6 4 4 1 8 9 8 9 10 14 12 16 7 7 15 15 14 13 20 22 20 9 14 9 18 29 24 27 28 28 30 30 31 28 29 27 25 23
7 3 2 1 2 5 5 3 4 3 6 6 7 9 12 10 10 14 8 7 17 16 13 14 23 24 21 17 21 9 3 19 22 28 30 29 32 31 29 29 26 23 24 26
3 2 6 5 4 7 4 6 4 2 6 5 7 11 13 11 13 21 15 12 14 14 14 24 20 18 19 18 7 19 22 20 25 29 29 31 34 32 30 29 26 24 25 27
5 5 4 3 5 7 6 3 5 5 5 7 9 13 14 16 18 21 16 12 19 14 14 21 17 16 21 18 10 16 10 6 26 27 29 29 32 26 30 30 28 28 27 26
3 4 2 6 5 6 7 7 8 8 11 17 9 9 10 15 19 19 15 14 12 12 13 21 14 16 16 14 19 4 22 15 27 28 27 28 31 30 27 30 27 25 26 25
4 4 3 5 4 8 13 11 8 7 7 5 7 8 11 18 17 15 15 15 12 12 12 20 14 11 11 8 6 12 23 23 30 27 26 27 29 27 28 27 27 27 24 21
8 7 5 6 9 14 10 8 13 7 5 7 8 9 15 22 19 16 15 14 12 13 17 16 11 9 14 19 18 13 6 28 30 27 25 25 31 28 24 22 20 25 25 28
3 4 2 6 9 10 13 13 6 7 9 12 12 15 13 16 18 15 15 14 12 13 16 9 11 12 13 17 17 10 7 33 31 25 23 24 27 28 27 23 17 18 19 20
Wind_Direction
294 107 225 242 214 237 259 247 281 254 265 292 284 280 284 292 315 315 304 304 299 295 296 277 242 249 257 266 261 232 201 204 202 203 207 217 223 227 232 236 239 242 243 245
10 295 277 257 289 321 325 313 302 270 283 294 288 288 289 285 271 281 287 297 299 297 299 291 277 249 247 257 253 240 217 200 200 201 204 208 214 222 226 238 245 245 239 237
181 258 302 328 349 6 1 354 343 321 324 313 295 287 297 296 283 279 283 280 290 286 295 301 294 273 246 242 240 224 219 208 200 201 203 195 197 209 209 223 240 241 237 234
258 261 330 309 343 40 333 340 327 324 330 276 273 282 280 300 303 301 294 287 283 289 292 291 294 286 263 248 245 239 222 211 201 199 197 195 200 204 231 242 255 255 234 229
255 268 294 292 166 129 229 319 292 285 276 280 257 258 277 309 293 292 293 295 299 297 295 289 290 288 277 254 245 244 234 210 204 199 205 210 219 229 244 247 239 242 225 223
240 255 134 186 248 220 325 334 319 300 189 230 197 210 276 252 261 288 315 331 353 342 336 312 299 292 282 263 238 232 218 214 209 207 210 211 219 226 221 211 221 226 213 206
329 353 173 110 335 345 58 44 344 331 349 238 241 269 264 295 325 50 334 325 329 329 322 313 305 309 286 259 233 216 210 212 213 213 214 217 223 229 224 205 206 198 194 194
190 335 23 63 244 240 235 175 166 261 291 303 304 257 256 90 85 289 289 277 304 317 319 311 300 300 285 271 238 215 206 208 213 217 223 225 225 228 221 203 206 201 192 197
7 258 320 295 3 79 263 221 218 242 270 265 242 283 292 319 309 295 285 308 314 316 313 307 307 307 303 257 227 211 201 206 211 214 223 224 225 222 218 205 207 203 201 200
352 294 244 310 324 297 51 289 13 15 289 276 272 283 262 297 295 328 320 329 315 316 310 310 311 309 313 255 215 211 205 205 213 218 223 224 223 221 212 201 195 202 202 194
76 142 284 352 260 285 347 341 65 129 166 220 300 248 227 271 312 296 308 319 321 318 304 303 308 325 319 263 183 179 195 207 216 219 220 216 210 209 200 198 198 199 194 185
156 199 277 261 293 265 170 200 171 133 260 243 257 276 313 185 256 295 314 319 325 313 304 266 336 329 305 296 214 214 193 192 200 199 199 199 190 191 186 193 196 195 184 183
179 304 317 332 357 358 211 222 212 220 142 225 240 265 357 268 268 233 276 340 331 322 323 12 318 316 297 294 280 237 212 194 189 183 179 176 182 185 187 190 189 183 182 181
159 195 191 220 250 243 283 278 275 245 235 250 242 277 288 303 290 255 266 311 342 315 334 352 296 289 290 311 318 271 197 183 170 171 169 167 175 181 182 181 177 179 176 172
157 228 220 246 259 272 274 278 272 259 255 241 275 234 255 261 268 278 256 298 318 308 324 288 292 308 286 1 7 342 171 162 162 155 151 147 161 164 164 160 158 156 159 163
203 257 254 286 271 262 283 282 268 259 264 279 269 274 227 281 299 306 291 303 304 297 286 308 320 338 10 18 12 349 298 153 152 141 139 140 139 135 140 148 149 150 156 164
188 213 272 270 330 307 284 262 142 331 291 266 267 244 269 278 289 306 304 296 296 295 305 322 333 341 342 3 18 353 321 180 141 138 139 137 138 140 149 150 154 157 154 156
223 185 219 288 14 263 253 161 233 237 272 251 289 270 279 283 292 295 287 273 290 318 325 325 332 334 340 357 34 54 255 293 143 140 142 140 139 144 149 155 157 153 155 155
189 135 248 259 204 285 292 191 175 182 284 254 254 279 283 290 305 287 304 319 317 312 319 314 323 322 330 340 37 12 301 274 150 146 144 139 145 150 153 156 158 157 160 158
86 84 188 290 248 252 238 170 159 144 271 216 216 258 280 299 292 286 283 318 316 314 311 315 326 322 337 342 340 278 297 251 153 150 144 146 151 154 156 154 156 160 163 164
169 197 227 231 237 275 220 156 189 77 262 194 211 247 260 266 256 282 299 311 306 301 314 319 322 313 324 350 6 295 308 195 160 141 144 151 158 162 160 158 160 160 158 160
193 182 209 220 218 273 152 149 195 216 279 269 268 257 255 265 275 276 289 312 304 305 314 309 307 310 327 346 355 266 277 240 146 146 150 153 160 158 163 164 164 164 163 160
284 180 234 215 229 237 207 216 229 255 269 280 263 278 261 269 276 283 296 300 291 297 294 293 298 308 327 342 318 339 303 270 144 144 144 144 155 159 163 161 161 160 164 153
306 319 250 344 284 333 312 270 245 245 234 262 258 236 265 268 272 289 291 285 286 281 286 288 299 308 319 317 309 297 275 180 141 135 135 137 136 143 154 159 161 159 154 146
268 310 270 259 288 322 308 304 287 273 275 272 278 279 281 283 286 284 282 281 283 278 276 279 287 299 312 323 301 261 215 149 134 131 130 129 138 144 142 143 153 164 169 171
213 232 260 279 286 277 272 293 359 341 305 290 274 285 274 284 288 283 275 280 271 272 285 287 292 296 312 326 312 332 164 142 135 131 135 139 137 143 146 144 135 160 172 182